Location: Newark
(7.0858°N, 171.3717°E)
Time: 03:21:55
(UTC+00:00)

A-11 Canister half - Pass Details

Date: 07 December 2020
Orbit: 1517 x 1683 km, 47.2° (Epoch: 16 January)

Event Time Altitude Azimuth Distance (km) Brightness Sun altitude
Rises 16:57:20 0° 183° (S) 4,654 11.8 -23.2°
Reaches altitude 10° 17:02:20 10° 160° (SSE) 3,677 11.5 -22.1°
Maximum altitude 17:06:56 15° 130° (SE) 3,332 11.7 -21.0°
Drops below altitude 10° 17:11:33 10° 99° (E) 3,709 12.2 -19.9°
Sets 17:16:34 0° 77° (ENE) 4,720 12.5 -18.8°
